[[{"header":{"parameterUnit":"m.s-1","parameterCategory":1,"la1":30.2991,"la2":30.254,"lo1":-89.0895,"lo2":-89.0444,"dy":0.0017,"dx":0.0017,"nx":28,"ny":28,"refTime":"2025-03-10T03:00:00:Z","depth":0,"parameterNumber":2,"parameterNumberName":"U-component_of_WINDS"},"data":[0,0,0,0,0,0,0,0,0,0,0,0,0,0,0,0,0,0,0,0,0,0,0,0,0,0,0,0,0,0,0,0,0,0,0,0,0,0,0,0,0,0,0,0,0,0,0,0,0,0,0,0,0,0,0,0,0,0,0.9807,0.9807,0,0.9823,0.9823,0.9823,0.9831,0.9831,0.9831,0.9831,0.9846,0.9846,0.9846,0,0,0,0,0,0,0,0,0,0,0,0,0,0.9783,0.9784,0.9807,0.9807,0.9808,0.9823,0.9823,0.9823,0.9831,0.9831,0.9831,0.9831,0.9845,0.9846,0.9846,0,0,0,0,0,0,0,0,0,0,0,0,0,0.9796,0.9784,0.9807,0.9814,0.9814,0.9823,0.9823,0.9823,0.9831,0.9831,0.9831,0.9831,0.9845,0.9846,0.9846,0.9849,0,0,0.9848,0.9848,0,0,0,0,0,0,0,0,0.9795,0.9797,0.9812,0.9813,0.9814,0.9825,0.982,0.9832,0.9831,0.9825,0.9831,0.9831,0.9839,0.984,0.9843,0.985,0.985,0.9848,0.9848,0.9849,0.9849,0,0,0,0,0,0,0,0.9794,0.9796,0.9813,0.9813,0.9814,0.9815,0.9817,0.9822,0.9831,0.9825,0.9826,0.9828,0.9839,0.9842,0.9843,0.9851,0.9848,0.9849,0.9849,0.9849,0.9861,0.9861,0,0,0,0,0,0,0.9792,0.9795,0.9813,0.9814,0.9804,0.9816,0.9818,0.9821,0.9831,0.9833,0.9828,0.9828,0.9841,0.9842,0.9843,0.9848,0.9849,0.9849,0.9849,0.9861,0.9861,0.9861,0,0,0,0,0,0,0.9792,0.9794,0.9812,0.9805,0.9807,0.9816,0.982,0.9822,0.9825,0.9833,0.9835,0.9829,0.9841,0.9843,0.9848,0.9848,0.9849,0.985,0.9861,0.9861,0.9861,0.9856,0,0,0,0,0,0,0.9791,0.9794,0.9795,0.9805,0.9807,0.9817,0.982,0.9822,0.9826,0.9826,0.9835,0.9836,0.9841,0.9847,0.9848,0.9849,0.985,0.9861,0.9861,0.9861,0.9856,0.9855,0.9855,0,0,0,0,0,0.979,0.9793,0.9795,0.9797,0.981,0.9817,0.9818,0.9824,0.9826,0.9827,0.9833,0.9836,0.9848,0.9847,0.9849,0.985,0.9861,0.9861,0.9861,0.9856,0.9855,0.9855,0,0,0,0,0,0,0.9782,0.9794,0.9797,0.9803,0.9809,0.9818,0.982,0.9824,0.9829,0.9829,0.9836,0.9838,0.9843,0.9847,0.9846,0.9853,0.9855,0.9855,0.985,0.985,0.985,0.9848,0.9851,0,0,0,0,0,0.9781,0.9787,0.9796,0.98,0.9803,0.9811,0.9814,0.9819,0.9825,0.9828,0.9833,0.9839,0.9844,0.9847,0.9852,0.9856,0.9858,0.9858,0.9857,0.9857,0.9857,0.986,0.9859,0.9861,0.9861,0.9861,0,0,0.9779,0.9786,0.9789,0.9799,0.9804,0.9809,0.9813,0.9818,0.9822,0.9828,0.9834,0.9838,0.9845,0.9849,0.9852,0.9853,0.9857,0.9857,0.9857,0.9857,0.986,0.9859,0.9859,0.9861,0.9861,0.9861,0,0,0.9778,0.9783,0.9788,0.9793,0.9801,0.9806,0.9807,0.9816,0.9819,0.9825,0.983,0.9834,0.9843,0.9848,0.9851,0.9851,0.9855,0.9853,0.9851,0.9853,0.9853,0.9853,0.9853,0.9853,0.9853,0.9853,0.9853,0,0.9774,0.9782,0.9789,0.9794,0.9798,0.9805,0.9808,0.9813,0.9822,0.9825,0.9826,0.9837,0.9842,0.9848,0.9848,0.9851,0.9852,0.9852,0.9853,0.9853,0.9853,0.9853,0.9853,0.9853,0.9853,0.9853,0.9853,0,0.9776,0.9782,0.9784,0.9794,0.9798,0.9802,0.981,0.9813,0.9817,0.9822,0.9828,0.9834,0.984,0.9842,0.9846,0.9849,0.9849,0.9851,0.9853,0.9852,0.9852,0.9853,0.9852,0.9852,0.9853,0.9853,0,0,0.977,0.9784,0.9784,0.9789,0.9798,0.9803,0.9807,0.9814,0.9817,0.9823,0.9827,0.9834,0.9836,0.984,0.9844,0.9846,0.9846,0.9848,0.9849,0.9848,0.985,0.9848,0.9848,0.9849,0.9849,0.9849,0.9849,0,0.977,0.9779,0.9786,0.9792,0.9797,0.9804,0.9808,0.9814,0.9818,0.9823,0.9828,0.9833,0.9836,0.9838,0.9841,0.9846,0.9847,0.9846,0.9852,0.9852,0.985,0.9848,0.9846,0.9847,0.985,0.985,0.985,0,0.9771,0.9778,0.9785,0.9794,0.9796,0.98,0.9807,0.9811,0.9818,0.9821,0.9826,0.983,0.9835,0.9837,0.9843,0.9842,0.9845,0.9848,0.9848,0.9849,0.9851,0.9849,0.9847,0.9847,0.985,0.985,0.985,0,0.9766,0.9776,0.9782,0.9785,0.9796,0.9798,0.9803,0.981,0.9814,0.982,0.9822,0.9828,0.9832,0.9836,0.9842,0.9843,0.9848,0.985,0.9851,0.9851,0.9851,0.9851,0.985,0.9853,0.9853,0.9853,0.9853,0,0.9765,0.9769,0.978,0.9783,0.9788,0.9795,0.9799,0.9804,0.981,0.9815,0.982,0.9824,0.9832,0.9836,0.9841,0.9846,0.9847,0.985,0.9851,0.9849,0.9849,0.9851,0.9851,0.9853,0.9853,0.9853,0.9853,0,0.976,0.9767,0.9774,0.9784,0.9786,0.9789,0.9797,0.9801,0.9806,0.9811,0.9813,0.9821,0.9827,0.9833,0.9841,0.9844,0.9848,0.985,0.9846,0.9847,0.9847,0.9847,0.9847,0.9847,0.985,0.985,0.985,0,0.9758,0.9762,0.9772,0.9776,0.978,0.9786,0.979,0.9797,0.9801,0.981,0.9812,0.9818,0.9824,0.9832,0.9839,0.9845,0.9846,0.9846,0.9847,0.9846,0.9846,0.9846,0.9846,0.9846,0.9845,0.9845,0.9845,0,0.9756,0.9759,0.9765,0.9773,0.9778,0.9784,0.979,0.9792,0.9801,0.9805,0.9811,0.9815,0.9823,0.9829,0.9836,0.984,0.9844,0.9845,0.9845,0.9844,0.9841,0.9843,0.9845,0.9845,0.9845,0.9845,0.9845,0.9845,0.9753,0.9756,0.9764,0.977,0.9776,0.9782,0.9785,0.9791,0.9797,0.9804,0.9808,0.9814,0.9821,0.9831,0.9835,0.984,0.9841,0.9842,0.9842,0.9842,0.9841,0.9841,0.9841,0.9841,0.9841,0.9841,0.9841,0,0.975,0.9756,0.9762,0.977,0.9775,0.9779,0.9786,0.979,0.9796,0.9802,0.9807,0.9814,0.982,0.9827,0.9834,0.9836,0.9838,0.9837,0.9837,0.9838,0.984,0.9839,0.9836,0.9836,0.9836,0.9836,0.9836,0.9836,0.9749,0.9755,0.976,0.9768,0.9774,0.978,0.9784,0.9789,0.9794,0.9802,0.9808,0.9812,0.9819,0.9826,0.9831,0.9833,0.9835,0.9834,0.9836,0.9838,0.9838,0.9839,0.9838,0.9834,0.9834,0.9835,0.9835,0.9835]},{"header":{"parameterUnit":"m.s-1","parameterCategory":1,"la1":30.2991,"la2":30.254,"lo1":-89.0895,"lo2":-89.0444,"dy":0.0017,"dx":0.0017,"nx":28,"ny":28,"refTime":"2025-03-10T03:00:00:Z","depth":0,"parameterNumber":3,"parameterNumberName":"V-component_of_WINDS"},"data":[0,0,0,0,0,0,0,0,0,0,0,0,0,0,0,0,0,0,0,0,0,0,0,0,0,0,0,0,0,0,0,0,0,0,0,0,0,0,0,0,0,0,0,0,0,0,0,0,0,0,0,0,0,0,0,0,0,0,-1.7932,-1.7934,0,-1.8054,-1.8056,-1.8057,-1.8068,-1.8067,-1.8065,-1.8064,-1.8191,-1.8195,-1.82,0,0,0,0,0,0,0,0,0,0,0,0,0,-1.7712,-1.7716,-1.7932,-1.7934,-1.7935,-1.8054,-1.8056,-1.8057,-1.8068,-1.8067,-1.8065,-1.8064,-1.8189,-1.8195,-1.82,0,0,0,0,0,0,0,0,0,0,0,0,0,-1.7818,-1.7717,-1.7932,-1.7955,-1.7958,-1.8054,-1.8056,-1.8058,-1.8069,-1.8067,-1.8065,-1.8063,-1.8187,-1.8194,-1.8201,-1.8282,0,0,-1.8222,-1.8225,0,0,0,0,0,0,0,0,-1.7812,-1.7826,-1.795,-1.7954,-1.7957,-1.8044,-1.8024,-1.8133,-1.8069,-1.8027,-1.8064,-1.8062,-1.8144,-1.8154,-1.8181,-1.8288,-1.8294,-1.8223,-1.8227,-1.823,-1.8232,0,0,0,0,0,0,0,-1.7805,-1.7821,-1.7981,-1.7952,-1.7956,-1.796,-1.7973,-1.8045,-1.8095,-1.803,-1.8031,-1.8046,-1.8145,-1.8174,-1.8184,-1.8295,-1.8222,-1.8228,-1.8233,-1.8235,-1.8476,-1.8478,0,0,0,0,0,0,-1.7793,-1.7815,-1.7977,-1.7984,-1.7878,-1.7966,-1.798,-1.8018,-1.8094,-1.8104,-1.8047,-1.8046,-1.8164,-1.8176,-1.8189,-1.8289,-1.823,-1.8236,-1.824,-1.8474,-1.8477,-1.8479,0,0,0,0,0,0,-1.7788,-1.7807,-1.7972,-1.79,-1.7921,-1.7971,-1.8014,-1.8022,-1.8051,-1.8107,-1.8116,-1.8068,-1.8163,-1.8179,-1.8259,-1.8294,-1.8239,-1.8245,-1.8471,-1.8475,-1.8478,-1.8491,0,0,0,0,0,0,-1.7781,-1.7805,-1.7836,-1.79,-1.7925,-1.8039,-1.8016,-1.8025,-1.8062,-1.8062,-1.8128,-1.8137,-1.8162,-1.8249,-1.8266,-1.8302,-1.8251,-1.8468,-1.8473,-1.8477,-1.8488,-1.8494,-1.85,0,0,0,0,0,-1.7773,-1.7835,-1.7837,-1.7857,-1.7964,-1.8041,-1.8055,-1.8082,-1.8065,-1.8097,-1.8133,-1.8135,-1.8287,-1.8257,-1.8276,-1.8315,-1.8466,-1.8472,-1.8477,-1.8485,-1.8493,-1.85,0,0,0,0,0,0,-1.7774,-1.7844,-1.7847,-1.7931,-1.798,-1.8043,-1.8084,-1.809,-1.8145,-1.8142,-1.8174,-1.8189,-1.8268,-1.83,-1.8264,-1.8398,-1.8375,-1.8384,-1.8375,-1.8383,-1.8389,-1.838,-1.8256,0,0,0,0,0,-1.7784,-1.784,-1.7898,-1.7967,-1.7991,-1.8033,-1.8068,-1.8084,-1.8136,-1.8157,-1.8199,-1.825,-1.831,-1.8348,-1.8406,-1.8492,-1.8508,-1.8529,-1.8535,-1.854,-1.8548,-1.8597,-1.8607,-1.8496,-1.8496,-1.8496,0,0,-1.7805,-1.785,-1.7883,-1.7968,-1.8008,-1.8066,-1.8051,-1.8112,-1.8156,-1.8167,-1.8245,-1.8277,-1.8337,-1.842,-1.8459,-1.8449,-1.8582,-1.8547,-1.855,-1.8555,-1.8603,-1.8614,-1.8623,-1.85,-1.8499,-1.8498,0,0,-1.7873,-1.7912,-1.7974,-1.8014,-1.8074,-1.8102,-1.8117,-1.8179,-1.8201,-1.8279,-1.8289,-1.8342,-1.8443,-1.8485,-1.852,-1.8604,-1.8609,-1.8622,-1.8655,-1.8702,-1.8711,-1.8719,-1.875,-1.8761,-1.863,-1.863,-1.863,0,-1.7892,-1.7979,-1.8005,-1.8067,-1.8104,-1.8116,-1.8179,-1.8217,-1.8294,-1.832,-1.8307,-1.8435,-1.8475,-1.8569,-1.859,-1.8617,-1.8636,-1.8615,-1.8708,-1.8716,-1.8724,-1.8754,-1.8765,-1.8631,-1.8631,-1.8631,-1.863,0,-1.7999,-1.8059,-1.8102,-1.8175,-1.8217,-1.8279,-1.8316,-1.8356,-1.8369,-1.8398,-1.8478,-1.8528,-1.8596,-1.8619,-1.8632,-1.8716,-1.8708,-1.8701,-1.8678,-1.8735,-1.8764,-1.8775,-1.8633,-1.8632,-1.8632,-1.8631,0,0,-1.8071,-1.8157,-1.8173,-1.8206,-1.8274,-1.8321,-1.8385,-1.8451,-1.8484,-1.8537,-1.8591,-1.8677,-1.8671,-1.871,-1.8729,-1.877,-1.8835,-1.8759,-1.8761,-1.8772,-1.8931,-1.8935,-1.8948,-1.8838,-1.884,-1.8842,-1.8926,0,-1.8147,-1.8259,-1.8285,-1.8381,-1.8438,-1.845,-1.8505,-1.8553,-1.8583,-1.8635,-1.8668,-1.8728,-1.8716,-1.874,-1.8782,-1.8818,-1.8867,-1.8812,-1.889,-1.8893,-1.8875,-1.8963,-1.8968,-1.9045,-1.8937,-1.8939,-1.894,0,-1.8251,-1.8305,-1.8407,-1.8467,-1.8492,-1.8541,-1.8604,-1.8654,-1.8709,-1.8728,-1.8772,-1.8786,-1.8853,-1.8826,-1.892,-1.8882,-1.8916,-1.8938,-1.8942,-1.8951,-1.892,-1.8975,-1.907,-1.9081,-1.8958,-1.8957,-1.8955,0,-1.8294,-1.8392,-1.8466,-1.8494,-1.8567,-1.8601,-1.8633,-1.8686,-1.8724,-1.8779,-1.8804,-1.8867,-1.8901,-1.895,-1.8981,-1.8959,-1.9073,-1.9048,-1.9091,-1.909,-1.9114,-1.9113,-1.9217,-1.9135,-1.9135,-1.9134,-1.9134,0,-1.8377,-1.8439,-1.8486,-1.8532,-1.8602,-1.8632,-1.8701,-1.8733,-1.878,-1.8833,-1.8847,-1.8896,-1.8934,-1.8989,-1.9014,-1.9088,-1.9103,-1.9121,-1.9127,-1.912,-1.9118,-1.9143,-1.9138,-1.9138,-1.9137,-1.9136,-1.9136,0,-1.8437,-1.8471,-1.8553,-1.8614,-1.8631,-1.868,-1.8733,-1.8779,-1.8808,-1.8875,-1.8892,-1.8939,-1.9004,-1.904,-1.9122,-1.9138,-1.9222,-1.9225,-1.9203,-1.9206,-1.9246,-1.9242,-1.937,-1.9389,-1.9294,-1.9295,-1.9296,0,-1.8487,-1.8535,-1.8602,-1.8638,-1.867,-1.8728,-1.8767,-1.8798,-1.8838,-1.8905,-1.8942,-1.9008,-1.9063,-1.9167,-1.9208,-1.9272,-1.9276,-1.9317,-1.9286,-1.9278,-1.9278,-1.9275,-1.928,-1.9323,-1.9323,-1.9324,-1.9325,0,-1.8574,-1.8589,-1.8644,-1.8705,-1.8751,-1.8801,-1.8851,-1.888,-1.8919,-1.8964,-1.903,-1.9073,-1.9156,-1.9222,-1.9289,-1.9322,-1.9331,-1.9334,-1.9347,-1.9341,-1.9327,-1.9336,-1.9219,-1.9331,-1.9331,-1.933,-1.933,-1.9329,-1.8632,-1.8675,-1.8729,-1.879,-1.8831,-1.8877,-1.8922,-1.8957,-1.9013,-1.9083,-1.9098,-1.9169,-1.9223,-1.9313,-1.9349,-1.9405,-1.9398,-1.9417,-1.9422,-1.9426,-1.9428,-1.9317,-1.9418,-1.9417,-1.9417,-1.9417,-1.9417,0,-1.872,-1.8755,-1.8811,-1.888,-1.8928,-1.893,-1.8986,-1.9026,-1.9088,-1.9138,-1.9191,-1.9268,-1.9332,-1.9379,-1.9444,-1.948,-1.9486,-1.9497,-1.9495,-1.9503,-1.9431,-1.9413,-1.9491,-1.9491,-1.9491,-1.9491,-1.9491,-1.9491,-1.8771,-1.8845,-1.8866,-1.8961,-1.8996,-1.9064,-1.9096,-1.9139,-1.9179,-1.9264,-1.9317,-1.9346,-1.9396,-1.9465,-1.9524,-1.9536,-1.956,-1.957,-1.9583,-1.9515,-1.9508,-1.95,-1.9484,-1.9575,-1.9575,-1.965,-1.9651,-1.9652]}]]